THOR ABLESTAR DEB, 417

Orbit data source: Space-Track

THOR ABLESTAR DEB, 417 is space debris in LEO originally from a launch on Thu, 29 Jun 1961 UTC launched from the Air Force Eastern Test Range (AFETR). Debris objects in space refer to the collection of defunct objects orbiting the Earth. Examples of debris include non-operational satellites, rocket bodies, and fragments generated from explosions, collisions, or faulty payload assembly.

Loading next visibility...
Identifier
417, 1961-015ES
Orbit
LEO
Country
Flag of USUS
Related business
Manufacturer
Unknown
Mission
Spacecraft
Bus & Motor
Unknown
Mass
Unknown
Launch date (UTC)
1961-06-29 (64 years ago)
Launch vehicle
Unknown
Launch site
Air Force Eastern Test Range (AFETR)
Object type
Payload
Rocket body
Debris
Shape & HBR
Unknown
Radar Cross Section
Small (<0.1 m²)

Expand to show TLE details & history
Last TLE update: 23 hours ago

TLE from 23 hours ago
0 THOR ABLESTAR DEB
1 00417U 61015ES  25258.93983909  .00000682  00000-0  34766-3 0  9992
2 00417  66.7451 195.9027 0075597 296.5802  62.7557 14.20260912298548
Epoch: 2025-09-15T22:33Z
TLE epoch observation values (Epoch: 2025-09-15T22:33:22.097Z)
Latitude
-0.0001°
Longitude
-137.57671°
Altitude
801.97 km
Speed
7.466 km/s
True Right ascension
13h 03m 36s
True Declination
0° 00' 00"
Sunlit
Object was in daylight at epoch
Visualization orbit readout
Latitude
Unknown
Longitude
Unknown
Altitude
Unknown
Speed
Unknown
Apparent Right ascension
Unknown
Apparent Declination
Unknown
Sunlit
N/A
Visualization observer readout
Local Sidereal Time
13:58:44
Azimuth
Unknown
Elevation
Unknown
Doppler factor
Unknown
Orbital elements
Apogee altitude
877.285 km
Perigee altitude
768.41 km
Semi-major axis
7,200.985 km
Eccentricity
0.00756
Inclination
66.7451°
RAAN
195.9027°
Arg. of periapsis
296.5802°
True anomaly
63.5292°
Mean anomaly
62.7557°
Eccentric anomaly
63.14212°
Mean motion
3.55186 °/min
Orbital period
101.36 mins
BSTAR
0.00034766
Loading maneuver chart data...
Computing Atmospheric mass density...

Documentation

Showing up to 5 results
|